Location: Abraham Lincoln Continuation High School
(33.9711°N, 117.3662°W)
Time: 12:15:29
(UTC+00:00)

Lacrosse 5 - Pass Details

Date: 19 January 2021
Orbit: 715 x 724 km, 57.0° (Epoch: 03 March)

Event Time Altitude Azimuth Distance (km) Brightness Sun altitude
Rises 01:56:23 0° 336° (NNW) 3,119 5.2 -10.4°
Reaches altitude 10° 02:00:55 10° 14° (NNE) 2,197 4.1 -11.3°
Maximum altitude 02:02:09 11° 28° (NNE) 2,142 3.9 -11.6°
Enters shadow 02:03:03 10° 39° (NE) 2,171 3.9 -11.8°
